Regional Weather Roundup
Issued by NWS Glasgow, MT

Home | Current Version | Previous Version | Text Only | Print | Product List | Glossary On
Versions: 1 2 3 4 5 6 7 8 9 10 11 12 13 14 15 16 17 18 19 20 21 22 23 24 25 26 27 28 29 30 31 32 33 34 35 36 37 38 39 40 41 42 43 44 45 46 47 48 49 50
000
ASUS45 KGGW 230615
RWRGGW
HOURLY REGIONAL WEATHER ROUNDUP FOR NORTHEAST MONTANA
NATIONAL WEATHER SERVICE GLASGOW MONTANA
1100 PM MST SUN JAN 22 2017

NOTE: "FAIR" INDICATES FEW OR NO CLOUDS BELOW 12,000 FEET WITH NO
SIGNIFICANT WEATHER AND/OR OBSTRUCTIONS TO VISISBILITY.

NORTHEAST MONTANA


CITY           SKY/WX    TMP DP  RH WIND       PRES   REMARKS
GLASGOW        CLOUDY    29  24  82 SW6       29.78S
6HR MIN TEMP:  29; 6HR MAX TEMP:  30;

PLENTYWOOD       N/A     26  25  96 W3          N/A
WOLF POINT     CLOUDY    30  25  81 SW5       29.80S
JORDAN           N/A     27  24  89 SE7       29.76F
WINNETT          N/A     23  23 100 SE1         N/A
SIDNEY         CLOUDY    29  25  85 W5        29.81S
GLENDIVE       CLOUDY    27  22  81 S3        29.81S
SCOBEY           N/A     26  20  77 CALM      29.76

FORT PECK REPORTS


CITY           SKY/WX    TMP DP  RH WIND       PRES   REMARKS
FORT PECK        N/A     29  27  92 SW9         N/A
THE PINES        N/A     29  26  89 CALM        N/A

SOUTHEAST MONTANA


CITY           SKY/WX    TMP DP  RH WIND       PRES   REMARKS
BILLINGS       CLOUDY    22  18  85 NE6       29.66F
MILES CITY     CLOUDY    25  21  85 E3        29.77F
BAKER          CLOUDY    23  21  92 NE5       29.78F
LIVINGSTON     CLOUDY    31  18  58 E6        29.63R

CENTRAL MONTANA


CITY           SKY/WX    TMP DP  RH WIND       PRES   REMARKS
HAVRE          CLOUDY    27  26  96 NE7       29.76S
LEWISTOWN      FOG       17  15  92 SW3       29.66R VSB 1/2
GREAT FALLS    SNOW      24  22  91 N5        29.70S VSB 1/4
CUT BANK       FOG       23  22  96 N9        29.71F VSB 1
HELENA         CLOUDY    20  18  92 CALM      29.65F FOG
BUTTE          NOT AVBL
BOZEMAN        CLOUDY    26  21  81 NE10      29.64S

WESTERN MONTANA


CITY           SKY/WX    TMP DP  RH WIND       PRES   REMARKS
MISSOULA       LGT SNOW  31  30  96 E13       29.62S VSB 3/4
KALISPELL      NOT AVBL

NORTH DAKOTA


CITY           SKY/WX    TMP DP  RH WIND       PRES   REMARKS
WILLISTON      CLOUDY    27  23  85 SW5       29.80S
DICKINSON      CLOUDY    25  20  81 W8        29.78R
MINOT          CLOUDY    30  25  81 W10       29.77S
BISMARCK       CLOUDY    31  24  75 W8        29.83S

SOUTHERN SASKATCHEWAN


CITY           SKY/WX    TMP DP  RH WIND       PRES   REMARKS
REGINA         FLURRIES  19  16  86 W15       29.77S
ESTEVAN        FLURRIES  25  21  86 W13       29.76F
SWIFT CURRENT  CLOUDY    18  16  93 N10       29.74F




USA.gov is the U.S. government's official web portal to all federal, state and local government web resources and services.